Time,TemperatureF,DewpointF,PressureIn,WindDirection,WindDirectionDegrees,WindSpeedMPH,WindSpeedGustMPH,Humidity,HourlyPrecipIn,Conditions,Clouds,dailyrainin,SoftwareType,DateUTC
2013-02-12 00:01:00,40.0,38.0,-100.00,NNE,30,0.0,3.0,92,-99.99,,,-99.99,,2013-02-12 08:01:00,
2013-02-12 00:10:00,40.0,38.0,-100.00,ENE,70,1.0,5.0,92,-99.99,,,-99.99,,2013-02-12 08:10:00,
2013-02-12 01:01:00,40.0,38.0,-100.00,ENE,70,1.0,5.0,92,-99.99,,,-99.99,,2013-02-12 09:01:00,
2013-02-12 01:10:00,40.0,39.0,-100.00,NNE,30,0.0,2.0,96,-99.99,,,-99.99,,2013-02-12 09:10:00,
2013-02-12 02:01:00,40.0,39.0,-100.00,NNE,30,0.0,2.0,96,-99.99,,,-99.99,,2013-02-12 10:01:00,
2013-02-12 02:10:00,40.0,40.0,-100.00,NE,40,0.0,2.0,100,-99.99,,,-99.99,,2013-02-12 10:10:00,
2013-02-12 03:01:00,40.0,40.0,-100.00,NE,40,0.0,2.0,100,-99.99,,,-99.99,,2013-02-12 11:01:00,
2013-02-12 04:10:00,41.0,40.0,-100.00,NE,40,1.0,2.0,96,-99.99,,,-99.99,,2013-02-12 12:10:00,
2013-02-12 05:01:00,41.0,40.0,-100.00,NE,40,1.0,2.0,96,-99.99,,,-99.99,,2013-02-12 13:01:00,
2013-02-12 05:10:00,41.0,41.0,-100.00,SE,135,1.0,2.0,100,-99.99,,,-99.99,,2013-02-12 13:10:00,
2013-02-12 06:01:00,41.0,41.0,-100.00,SE,135,1.0,2.0,100,-99.99,,,-99.99,,2013-02-12 14:01:00,
2013-02-12 06:10:00,41.0,41.0,-100.00,East,90,1.0,3.0,100,-99.99,,,-99.99,,2013-02-12 14:10:00,
2013-02-12 07:01:00,41.0,41.0,-100.00,East,90,1.0,3.0,100,-99.99,,,-99.99,,2013-02-12 15:01:00,
2013-02-12 07:10:00,42.0,41.0,-100.00,ESE,105,2.0,6.0,96,-99.99,,,-99.99,,2013-02-12 15:10:00,
2013-02-12 08:01:00,42.0,41.0,-100.00,ESE,105,2.0,6.0,96,-99.99,,,-99.99,,2013-02-12 16:01:00,
2013-02-12 08:10:00,42.0,42.0,-100.00,NNW,335,0.0,3.0,100,-99.99,,,-99.99,,2013-02-12 16:10:00,
2013-02-12 09:01:00,42.0,42.0,-100.00,NNW,335,0.0,3.0,100,-99.99,,,-99.99,,2013-02-12 17:01:00,
2013-02-12 09:10:00,44.0,44.0,-100.00,North,360,1.0,5.0,100,-99.99,,,-99.99,,2013-02-12 17:10:00,
2013-02-12 10:01:00,44.0,44.0,-100.00,North,360,1.0,5.0,100,-99.99,,,-99.99,,2013-02-12 18:01:00,
2013-02-12 10:10:00,45.0,44.0,-100.00,NW,305,0.0,2.0,96,-99.99,,,-99.99,,2013-02-12 18:10:00,
2013-02-12 11:02:00,45.0,44.0,-100.00,NW,305,0.0,2.0,96,-99.99,,,-99.99,,2013-02-12 19:02:00,
2013-02-12 11:10:00,45.0,44.0,-100.00,NNW,340,2.0,3.0,96,-99.99,,,-99.99,,2013-02-12 19:10:00,
2013-02-12 12:01:00,45.0,44.0,-100.00,NNW,340,2.0,3.0,96,-99.99,,,-99.99,,2013-02-12 20:01:00,
2013-02-12 12:10:00,46.0,45.0,-100.00,North,360,1.0,6.0,96,-99.99,,,-99.99,,2013-02-12 20:10:00,
2013-02-12 13:01:00,46.0,45.0,-100.00,North,360,1.0,6.0,96,-99.99,,,-99.99,,2013-02-12 21:01:00,
2013-02-12 13:10:00,46.0,45.0,-100.00,NNW,340,2.0,6.0,96,-99.99,,,-99.99,,2013-02-12 21:10:00,
2013-02-12 14:01:00,46.0,45.0,-100.00,NNW,340,2.0,6.0,96,-99.99,,,-99.99,,2013-02-12 22:01:00,
2013-02-12 14:10:00,46.0,45.0,-100.00,NW,310,3.0,9.0,96,-99.99,,,-99.99,,2013-02-12 22:10:00,
2013-02-12 15:01:00,46.0,45.0,-100.00,NW,310,3.0,9.0,96,-99.99,,,-99.99,,2013-02-12 23:01:00,
2013-02-12 15:10:00,47.0,46.0,-100.00,West,280,3.0,7.0,96,-99.99,,,-99.99,,2013-02-12 23:10:00,
2013-02-12 16:02:00,47.0,46.0,-100.00,West,280,3.0,7.0,96,-99.99,,,-99.99,,2013-02-13 00:02:00,
2013-02-12 16:10:00,48.0,44.0,-100.00,SW,235,6.0,12.0,85,-99.99,,,-99.99,,2013-02-13 00:10:00,
2013-02-12 17:01:00,48.0,44.0,-100.00,SW,235,6.0,12.0,85,-99.99,,,-99.99,,2013-02-13 01:01:00,
2013-02-12 17:10:00,48.0,44.0,-100.00,NNW,345,3.0,18.0,85,-99.99,,,-99.99,,2013-02-13 01:10:00,
2013-02-12 18:01:00,48.0,44.0,-100.00,NNW,345,3.0,18.0,85,-99.99,,,-99.99,,2013-02-13 02:01:00,
2013-02-12 18:10:00,48.0,44.0,-100.00,WSW,250,6.0,17.0,85,-99.99,,,-99.99,,2013-02-13 02:10:00,
2013-02-12 19:01:00,48.0,44.0,-100.00,WSW,250,6.0,17.0,85,-99.99,,,-99.99,,2013-02-13 03:01:00,
2013-02-12 19:10:00,47.0,45.0,-100.00,WNW,295,8.0,18.0,92,-99.99,,,-99.99,,2013-02-13 03:10:00,
2013-02-12 20:01:00,47.0,45.0,-100.00,WNW,295,8.0,18.0,92,-99.99,,,-99.99,,2013-02-13 04:01:00,
2013-02-12 20:10:00,48.0,44.0,-100.00,NNW,345,6.0,20.0,85,-99.99,,,-99.99,,2013-02-13 04:10:00,
2013-02-12 21:01:00,48.0,44.0,-100.00,NNW,345,6.0,20.0,85,-99.99,,,-99.99,,2013-02-13 05:01:00,
2013-02-12 21:10:00,48.0,44.0,-100.00,NNW,345,5.0,23.0,85,-99.99,,,-99.99,,2013-02-13 05:10:00,
2013-02-12 22:02:00,48.0,44.0,-100.00,NNW,345,5.0,23.0,85,-99.99,,,-99.99,,2013-02-13 06:02:00,
2013-02-12 22:10:00,47.0,43.0,-100.00,NW,320,5.0,22.0,85,-99.99,,,-99.99,,2013-02-13 06:10:00,
2013-02-12 23:02:00,47.0,43.0,-100.00,NW,320,5.0,22.0,85,-99.99,,,-99.99,,2013-02-13 07:02:00,
2013-02-12 23:10:00,48.0,43.0,-100.00,West,275,10.0,18.0,82,-99.99,,,-99.99,,2013-02-13 07:10:00,